Track IRIDIUM 82 now! 10-day predictions IRIDIUM 82 is classified as:
1 25467U 98051A 21110.44179849 .00001811 00000-0 12981-3 0 9993 2 25467 86.3954 99.4611 0179463 63.3064 298.6410 14.91406391195837